Hourly Data Report for August 10, 2022

DRYDEN REGIONAL
ONTARIO
Current Station Operator: NAVCAN

49°49'39.000" N
92°44'39.000" W
412.70 m
6032125
71527
YHD

Download Data

Hourly Data (August 2022)
Hourly Data Report for August 10, 2022
TIME
LST
Temp Definition
°C
Dew Point Definition
°C
Rel Hum Definition
%
Precip. Amount Definition
mm

Wind Dir Definition
10's deg

Wind Spd Definition
km/h
Visibility Definition
km
Stn Press Definition
kPa
Hmdx Definition


Wind Chill Definition


Weather Definition


00:00 13.9 10.9 82 0.0 26 9 16.1 96.89     LegendNANA
01:00 13.2 10.8 85 0.0 25 11 16.1 96.92     LegendNANA
02:00 12.4 10.8 90 0.0 26 13 16.1 96.96     LegendNANA
03:00 11.7 10.5 92 0.0 25 11 16.1 97.01     LegendNANA
04:00 12.5 11.1 91 0.0 31 5 16.1 97.06     LegendNANA
05:00 12.5 11.1 91 0.0 26 9 16.1 97.10     LegendNANA
06:00 13.1 11.4 89 0.0 27 13 16.1 97.15     LegendNANA
07:00 15.3 12.3 82 0.0 28 11 16.1 97.23     LegendNANA
08:00 17.1 10.7 66 0.0 31 13 16.1 97.28     LegendNANA
09:00 18.2 9.0 55 0.0 33 17 16.1 97.28     LegendNANA
10:00 19.5 8.8 50 0.0 31 15 16.1 97.33     LegendNANA
11:00 19.9 8.7 48 0.0 31 17 16.1 97.36     LegendNANA
12:00 20.1 8.9 48 0.0 32 21 16.1 97.37     LegendNANA
13:00 19.4 9.1 51 0.0 35 15 16.1 97.39     LegendNANA
14:00 19.6 9.7 52 0.0 34 11 16.1 97.39     LegendNANA
15:00 21.2 10.2 49 0.0 33 11 16.1 97.39     LegendNANA
16:00 19.6 10.4 55 0.0 2 17 16.1 97.41     LegendNANA
17:00 19.5 10.3 55 0.0 36 13 16.1 97.42     LegendNANA
18:00 19.2 9.9 54 0.0 1 11 16.1 97.43     LegendNANA
19:00 17.8 10.0 60 0.0 35 8 16.1 97.46     LegendNANA
20:00 16.2 9.6 65 0.0 35 9 16.1 97.51     LegendNANA
21:00 15.9 10.3 69 0.0 32 8 16.1 97.56     LegendNANA
22:00 14.6 10.3 75 0.0 35 8 16.1 97.57     LegendNANA
23:00 13.4 11.0 85 0.0 1 4 16.1 97.60     LegendNANA

Notes on Data Quality.

Legend

  • E = Estimated
  • M = Missing
  • NA = Not Available*
  • [empty] = Indicates an unobserved value
Date modified: